Location: Kumla
(59.1265°N, 15.1401°E)
Time: 04:49:58
(UTC+01:00)

Vanguard 2 Rocket - Pass Details

Date: 05 December 2023
Orbit: 554 x 3309 km, 32.9° (Epoch: 27 February)

Event Time Altitude Azimuth Distance (km) Brightness Sun altitude
Rises 12:12:23 0° 175° (S) 6,389 13.3 8.4°
Reaches altitude 10° 12:21:45 10° 148° (SSE) 5,945 12.0 8.2°
Maximum altitude 12:26:19 11° 133° (SE) 6,001 11.6 8.2°
Drops below altitude 10° 12:31:04 10° 119° (ESE) 6,232 11.5 8.1°
Sets 12:41:43 0° 93° (E) 7,237 11.4 7.8°
